SCP
0 -0 -0 0 0 -0 -0 -0 -0 -0 -0 0 0 0 0 0 0 0 0 0 0 0 0 0 0 0 0 0 0 0 0 0 0 0 0 0 0 0 0 0 0 -0 0
0 0 0 0 0 0 0 0 0 0 0 0 0 0 0 0 0 0 0 0 0 0 0 0 0 0 0 0 0 0 0 0 0 0 0 0 0 0 0 0 0 0 0
0 0 0 0 0 0 0 0 0 0 0 0 0 0 0 0 0 0 0 0 0 0 0 0 0 0 0 0 0 0 0 0 0 0 0 0 0 0 0 0 0 0 0
0 0 0 0 0 0 0 0 0 0 0 0 0 0 0 0 0 0 0 0 0 0 0 0 0 0 0 0 0 0 0 0 0 0 0 0 0 0 0 0 0 0 0
0 0 0 0 0 0 0 0 0 0 0 0 0 0 0 0 0 0 0 0 0 0 0 0 0 0 0 0 0 0 0 0 0 0 0 0 0 0 0 0 0 0 0
0 0 0 0 0 0 0 0 0 0 0 0 0 0 0 0 0 0 0 0 0 0 0 0 0 0 0 0 0 0 0 0 0 0 0 0 0 0 0 0 0 0 0
0 0 0 0 0 0 0 0 0 0 0 0 0 0 0 0 0 0 0 0 0 0 0 0 0 0 0 0 0 0 0 0 0 0 0 0 0 0 0 0 0 0 0
0 0 0 0 0 0 0 0 0 0 0 0 0 0 0 0 0 0 0 0 0 0 0 0 0 0 0 0 0 0 0 0 0 0 0 0 0 0 0 0 0 0 0
1 0 0 0 0 0 0 0 0 0 0 0 0 0 0 0 0 0 0 0 0 0 0 0 0 0 0 0 0 0 0 0 0 0 0 0 0 0 0 0 0 0 0
1 1 0 0 0 0 0 0 0 0 0 0 0 0 0 0 0 0 0 0 0 0 0 0 0 0 0 0 0 0 0 0 0 0 0 0 0 0 0 0 0 0 0
1 1 0 0 0 0 0 0 0 0 0 0 0 0 0 0 0 0 0 0 0 0 0 0 0 0 0 0 0 0 0 0 0 0 0 0 0 0 0 0 0 0 0
1 1 1 0 0 0 0 1 1 0 0 0 0 0 0 0 0 0 0 0 0 0 0 0 0 0 0 0 0 0 0 0 0 0 0 0 0 0 0 0 0 0 0
1 1 0 1 1 0 1 1 1 1 1 1 0 0 0 0 0 0 0 0 0 0 0 0 0 0 0 0 0 0 0 0 0 0 0 0 0 0 0 0 0 0 0
1 2 1 1 1 1 1 1 1 1 1 1 1 0 0 0 0 0 0 0 0 0 0 0 0 0 0 0 0 0 0 0 0 0 0 0 0 0 0 0 0 -0 0
0 0 1 1 1 1 1 1 1 1 1 1 1 0 0 0 0 0 0 0 0 0 0 0 0 0 0 0 0 0 0 0 0 0 0 0 0 0 0 0 -0 -0 -0
0 0 0 0 0 1 1 1 1 1 1 1 0 0 0 0 0 0 0 0 0 0 0 0 0 0 0 0 0 0 0 0 0 0 0 0 0 0 0 0 -0 -0 -0
0 0 0 0 1 1 2 2 1 1 1 1 1 1 0 0 0 0 0 0 0 0 0 0 0 0 0 0 0 0 0 0 0 0 0 0 0 0 0 0 -0 -0 0
0 0 0 0 0 1 1 1 1 1 1 1 1 0 0 0 0 0 0 0 0 0 0 0 0 0 0 0 0 0 0 0 0 0 0 0 0 0 0 0 -0 -0 0
0 0 0 0 1 1 1 1 1 1 1 1 0 0 0 0 0 0 0 0 0 0 0 0 0 0 0 0 0 0 0 0 0 0 0 0 0 0 0 0 -0 -0 0
0 0 0 0 0 0 1 1 1 1 1 1 0 0 0 0 0 0 0 0 0 0 0 0 0 0 0 0 0 0 0 0 0 0 0 0 0 0 0 0 -0 -0 0
0 0 0 0 0 0 1 1 0 0 0 1 0 0 0 0 0 0 0 0 0 0 0 0 0 0 0 0 0 0 0 0 0 0 0 0 0 0 0 0 0 0 0
0 0 0 0 0 0 0 0 0 0 0 0 0 0 0 0 0 0 0 0 0 0 0 0 0 0 0 0 0 0 0 0 0 0 0 0 0 0 0 0 0 0 0
0 0 0 0 0 0 0 0 0 0 0 0 0 0 0 0 0 0 0 0 0 0 0 0 0 0 0 0 0 0 0 0 0 0 0 0 0 0 0 0 0 0 0
0 0 0 0 0 0 0 0 0 0 0 0 0 0 0 0 0 0 0 0 0 0 0 0 0 0 0 0 0 0 0 0 0 0 0 0 0 0 0 0 0 0 0
0 0 0 0 0 0 0 0 0 0 0 0 0 0 0 0 0 0 0 0 0 0 0 0 0 0 0 0 0 0 0 0 0 0 0 0 0 0 0 0 0 0 0
0 0 0 0 0 0 0 0 0 0 0 0 0 0 0 0 0 -0 -0 0 0 0 0 0 0 0 0 0 0 0 0 0 0 0 0 0 0 0 0 0 0 0 0
Wind_Speed_500mb
27 22 22 16 8 16 16 16 15 8 11 10 11 7 12 13 6 7 12 17 20 23 17 11 7 8 9 10 12 14 15 16 18 19 19 20 19 19 21 26 26 25 24
33 25 18 18 14 13 22 24 19 10 5 12 16 11 14 18 17 16 19 22 22 18 16 10 6 4 6 9 9 8 8 8 9 11 15 17 18 18 20 21 23 23 23
34 29 26 24 19 18 17 27 24 15 14 13 16 9 13 10 13 19 18 25 17 13 12 15 12 10 5 5 3 2 1 4 9 13 15 17 18 18 17 18 20 21 22
21 30 33 33 29 23 18 21 19 20 19 11 11 16 17 17 15 17 22 17 14 16 20 13 12 16 5 3 1 2 3 7 11 14 17 19 19 18 18 19 21 23 26
26 27 25 33 33 29 23 27 30 29 23 20 17 19 23 23 20 24 23 23 22 23 20 14 13 17 6 3 2 2 5 10 13 18 20 21 22 21 21 23 26 28 29
35 33 32 27 41 39 38 36 31 29 23 19 24 20 28 28 24 27 25 23 20 27 17 16 10 14 6 6 5 4 6 14 15 20 24 26 24 24 25 26 28 33 35
42 41 37 32 39 47 41 34 35 34 31 26 28 29 28 33 31 25 25 28 28 21 16 15 11 12 11 12 10 13 13 17 18 25 27 31 27 27 28 27 31 36 40
41 44 41 38 33 50 56 43 43 40 40 38 35 30 29 39 41 36 33 32 31 26 20 19 18 17 18 18 15 19 20 20 21 26 29 34 33 28 28 30 34 38 41
52 46 46 44 41 41 56 56 49 50 46 46 43 39 18 25 21 35 36 35 35 31 23 26 27 27 27 24 20 22 22 22 22 25 31 38 34 28 28 30 34 37 43
46 52 55 53 51 48 48 57 53 55 54 52 46 50 50 35 16 15 27 31 33 31 32 33 35 33 33 32 28 25 22 22 23 25 32 38 33 28 27 29 32 39 43
38 50 57 55 54 58 57 54 59 64 64 55 52 53 49 48 48 44 39 28 32 31 31 37 40 40 39 35 32 31 26 25 24 26 34 39 31 26 24 27 34 41 40
39 41 45 49 54 48 64 61 61 63 59 55 53 55 58 60 55 46 44 41 43 41 35 36 46 45 40 46 41 38 30 28 27 31 38 39 29 23 21 26 34 40 34
32 33 40 39 38 39 43 56 62 65 64 67 60 61 66 61 56 53 45 41 35 35 35 31 35 38 42 42 41 39 35 31 31 33 39 35 26 19 19 26 35 34 28
32 34 37 41 42 45 46 49 55 70 71 64 62 62 59 65 61 54 46 39 42 40 40 41 39 24 40 42 40 42 36 32 32 37 41 33 24 17 20 27 35 32 24
36 38 44 49 48 44 42 45 38 56 67 68 65 66 63 64 65 57 51 49 41 37 39 40 37 30 28 45 43 40 33 30 32 39 35 31 21 14 18 28 33 35 29
33 41 46 52 55 54 51 46 47 44 54 69 68 66 65 69 74 65 61 54 50 46 42 38 28 25 32 29 39 33 31 32 32 32 29 28 18 13 17 28 32 30 29
23 27 33 40 43 44 46 47 50 48 45 48 54 58 66 72 78 66 51 53 58 55 53 41 37 29 33 36 41 38 32 36 31 27 26 24 16 14 15 24 30 25 21
32 25 22 28 35 37 41 49 47 48 50 51 58 59 63 60 51 49 47 42 49 51 54 47 44 42 36 36 39 41 35 35 34 27 27 25 16 14 12 17 27 26 18
40 33 26 22 25 33 41 44 46 44 40 38 44 47 52 46 46 47 49 44 45 44 46 50 46 42 34 37 45 45 37 42 36 30 27 26 18 16 12 14 22 26 27
39 37 34 28 24 23 30 32 35 36 39 40 41 43 42 42 41 40 35 37 33 42 41 43 45 42 42 41 47 44 37 39 27 33 30 30 23 19 17 13 16 21 26
36 38 36 32 27 22 21 23 41 47 47 48 47 44 42 39 42 46 44 38 40 41 45 40 45 42 44 48 50 47 34 29 29 31 32 37 30 22 21 16 13 17 19
25 35 42 34 29 26 22 21 19 22 32 38 45 44 39 44 42 41 43 46 42 48 49 47 52 51 56 58 55 46 36 30 35 34 44 43 37 32 25 23 17 14 16
27 30 40 36 32 25 21 19 21 22 21 21 22 32 44 45 45 39 37 40 48 51 54 55 57 60 59 56 52 52 52 52 61 49 36 50 45 38 30 31 24 20 15
27 22 27 34 35 29 29 27 28 30 28 24 22 27 35 38 39 50 54 49 52 55 58 65 67 65 59 59 60 64 58 63 58 63 66 61 58 37 34 34 32 27 19
45 41 36 35 40 41 38 36 37 36 38 39 35 36 39 46 43 39 44 50 62 76 71 70 73 75 75 67 67 69 73 69 62 53 61 63 57 38 36 40 39 32 26
54 45 46 48 43 42 40 40 41 43 43 40 36 40 45 49 53 46 52 55 54 63 62 60 61 75 79 80 71 67 65 76 65 52 53 63 63 44 38 47 45 41 34
Wind_Direction_500mb
219 200 167 165 212 208 196 183 173 158 143 159 199 297 298 292 314 312 320 326 329 344 357 334 298 262 249 255 269 269 269 273 282 291 298 298 301 297 292 290 288 288 289
223 222 204 207 210 218 213 207 200 195 227 268 216 260 295 270 273 288 307 316 309 319 346 15 3 316 277 268 263 260 266 285 303 313 313 315 312 308 304 304 302 303 303
220 222 221 222 221 227 212 199 199 205 273 245 231 231 285 249 269 282 292 303 282 303 341 344 28 14 329 294 256 216 35 354 339 331 328 330 328 324 325 321 318 321 320
224 229 223 224 228 228 226 243 236 258 266 223 220 230 254 265 250 279 281 286 279 303 322 325 351 2 353 342 90 96 31 6 359 349 345 343 339 337 335 333 331 332 328
244 239 247 226 210 225 241 248 248 258 269 235 239 241 254 264 270 270 279 285 286 298 312 324 333 355 22 22 73 41 16 3 3 4 358 347 341 338 333 333 336 337 333
253 252 252 252 226 222 229 237 246 253 256 245 243 242 253 257 262 293 281 273 278 297 293 323 321 348 330 5 1 342 337 352 348 0 357 352 344 335 331 335 335 336 335
251 249 254 256 240 229 229 237 242 241 244 256 245 241 247 240 251 266 280 281 277 287 279 298 303 326 336 315 322 333 319 333 333 343 348 346 341 331 333 337 338 339 337
245 248 256 257 257 234 234 237 244 241 244 246 251 250 233 247 250 255 259 266 270 281 277 274 289 289 299 319 327 330 310 317 319 332 338 338 335 330 335 338 340 343 340
251 253 249 255 260 242 235 239 243 245 246 246 254 246 234 239 261 251 250 250 253 264 277 277 280 285 276 293 302 315 319 308 309 322 328 330 329 328 334 338 341 344 342
255 254 258 259 260 253 244 241 241 247 249 251 253 244 242 261 270 273 257 243 238 246 265 269 270 279 277 278 286 286 305 323 315 313 319 323 323 324 335 339 344 346 345
262 258 256 253 255 254 251 249 243 246 253 255 252 247 248 250 259 262 270 262 251 254 261 260 268 275 275 274 278 278 292 305 318 313 316 319 315 322 334 342 348 349 351
254 267 267 254 254 258 252 252 245 245 247 254 255 251 248 251 252 259 264 273 270 273 276 271 261 265 275 273 274 280 279 289 304 305 315 316 309 320 335 344 350 354 359
269 259 266 268 263 272 266 251 248 246 245 249 257 254 250 251 255 261 267 270 272 277 280 280 282 262 256 265 266 270 270 289 288 295 312 307 301 316 333 347 357 3 9
277 266 261 262 269 270 270 270 250 250 249 250 251 253 254 250 252 255 258 264 266 268 274 278 283 274 243 250 256 265 272 287 282 298 305 294 296 314 343 358 4 11 21
291 284 273 272 269 264 264 268 271 258 254 250 251 251 253 253 255 253 253 257 266 268 263 271 268 270 259 247 251 252 268 284 286 299 296 284 299 320 357 7 7 20 25
280 284 280 278 276 270 264 260 261 262 258 250 252 258 261 260 262 262 254 258 263 265 270 268 262 252 265 268 249 250 265 265 282 293 282 277 304 324 14 18 12 20 28
326 318 294 275 275 274 259 251 253 255 257 253 254 256 258 260 264 266 260 253 261 261 261 259 261 261 265 262 239 242 249 264 275 285 268 268 293 324 8 27 20 19 21
317 316 316 301 273 263 262 261 258 257 260 254 261 268 270 269 271 266 265 257 257 259 255 250 260 266 264 246 236 244 254 265 269 270 263 259 275 305 350 14 22 27 9
329 311 314 319 301 272 262 260 253 252 253 261 267 273 276 273 271 272 266 259 254 251 252 246 254 254 249 237 233 238 251 261 266 256 249 251 254 286 317 353 10 26 24
323 325 312 309 316 306 275 254 247 250 268 265 266 272 278 272 274 273 266 250 248 244 250 248 248 247 241 238 231 239 253 265 247 254 249 243 246 262 285 320 350 11 19
303 315 319 310 301 312 315 294 265 266 272 269 261 266 264 273 276 280 263 254 245 246 246 245 243 240 232 230 234 244 259 250 237 249 250 245 251 258 270 283 317 349 4
283 300 305 312 312 296 308 313 311 296 276 278 267 264 252 259 267 277 261 252 251 248 247 248 249 246 248 250 253 252 242 228 237 245 249 246 250 256 265 266 281 309 339
296 290 300 297 304 300 303 315 315 306 303 307 300 301 282 266 263 262 261 253 249 249 249 249 250 249 250 253 256 249 233 242 248 262 261 260 248 252 256 252 256 275 300
296 299 288 290 291 288 294 300 302 298 295 294 303 303 299 290 282 269 261 257 254 249 250 254 254 253 255 255 255 243 255 253 242 250 248 263 246 247 257 244 243 261 270
292 291 283 282 283 279 282 285 291 294 293 297 293 285 281 293 293 281 282 276 266 261 259 254 252 251 252 254 254 250 247 237 228 240 252 245 236 239 255 240 239 249 255
291 292 288 280 277 276 271 277 288 290 285 286 287 293 284 274 272 297 296 289 277 271 267 264 262 254 250 255 248 241 242 243 238 235 249 221 227 230 239 245 240 241 248
Wind_Speed_850mb
27 22 22 16 8 16 16 16 15 8 11 10 11 7 12 13 6 7 12 17 20 23 17 11 7 8 9 10 12 14 15 16 18 19 19 20 19 19 21 26 26 25 24
33 25 18 18 14 13 22 24 19 10 5 12 16 11 14 18 17 16 19 22 22 18 16 10 6 4 6 9 9 8 8 8 9 11 15 17 18 18 20 21 23 23 23
34 29 26 24 19 18 17 27 24 15 14 13 16 9 13 10 13 19 18 25 17 13 12 15 12 10 5 5 3 2 1 4 9 13 15 17 18 18 17 18 20 21 22
21 30 33 33 29 23 18 21 19 20 19 11 11 16 17 17 15 17 22 17 14 16 20 13 12 16 5 3 1 2 3 7 11 14 17 19 19 18 18 19 21 23 26
26 27 25 33 33 29 23 27 30 29 23 20 17 19 23 23 20 24 23 23 22 23 20 14 13 17 6 3 2 2 5 10 13 18 20 21 22 21 21 23 26 28 29
35 33 32 27 41 39 38 36 31 29 23 19 24 20 28 28 24 27 25 23 20 27 17 16 10 14 6 6 5 4 6 14 15 20 24 26 24 24 25 26 28 33 35
42 41 37 32 39 47 41 34 35 34 31 26 28 29 28 33 31 25 25 28 28 21 16 15 11 12 11 12 10 13 13 17 18 25 27 31 27 27 28 27 31 36 40
41 44 41 38 33 50 56 43 43 40 40 38 35 30 29 39 41 36 33 32 31 26 20 19 18 17 18 18 15 19 20 20 21 26 29 34 33 28 28 30 34 38 41
52 46 46 44 41 41 56 56 49 50 46 46 43 39 18 25 21 35 36 35 35 31 23 26 27 27 27 24 20 22 22 22 22 25 31 38 34 28 28 30 34 37 43
46 52 55 53 51 48 48 57 53 55 54 52 46 50 50 35 16 15 27 31 33 31 32 33 35 33 33 32 28 25 22 22 23 25 32 38 33 28 27 29 32 39 43
38 50 57 55 54 58 57 54 59 64 64 55 52 53 49 48 48 44 39 28 32 31 31 37 40 40 39 35 32 31 26 25 24 26 34 39 31 26 24 27 34 41 40
39 41 45 49 54 48 64 61 61 63 59 55 53 55 58 60 55 46 44 41 43 41 35 36 46 45 40 46 41 38 30 28 27 31 38 39 29 23 21 26 34 40 34
32 33 40 39 38 39 43 56 62 65 64 67 60 61 66 61 56 53 45 41 35 35 35 31 35 38 42 42 41 39 35 31 31 33 39 35 26 19 19 26 35 34 28
32 34 37 41 42 45 46 49 55 70 71 64 62 62 59 65 61 54 46 39 42 40 40 41 39 24 40 42 40 42 36 32 32 37 41 33 24 17 20 27 35 32 24
36 38 44 49 48 44 42 45 38 56 67 68 65 66 63 64 65 57 51 49 41 37 39 40 37 30 28 45 43 40 33 30 32 39 35 31 21 14 18 28 33 35 29
33 41 46 52 55 54 51 46 47 44 54 69 68 66 65 69 74 65 61 54 50 46 42 38 28 25 32 29 39 33 31 32 32 32 29 28 18 13 17 28 32 30 29
23 27 33 40 43 44 46 47 50 48 45 48 54 58 66 72 78 66 51 53 58 55 53 41 37 29 33 36 41 38 32 36 31 27 26 24 16 14 15 24 30 25 21
32 25 22 28 35 37 41 49 47 48 50 51 58 59 63 60 51 49 47 42 49 51 54 47 44 42 36 36 39 41 35 35 34 27 27 25 16 14 12 17 27 26 18
40 33 26 22 25 33 41 44 46 44 40 38 44 47 52 46 46 47 49 44 45 44 46 50 46 42 34 37 45 45 37 42 36 30 27 26 18 16 12 14 22 26 27
39 37 34 28 24 23 30 32 35 36 39 40 41 43 42 42 41 40 35 37 33 42 41 43 45 42 42 41 47 44 37 39 27 33 30 30 23 19 17 13 16 21 26
36 38 36 32 27 22 21 23 41 47 47 48 47 44 42 39 42 46 44 38 40 41 45 40 45 42 44 48 50 47 34 29 29 31 32 37 30 22 21 16 13 17 19
25 35 42 34 29 26 22 21 19 22 32 38 45 44 39 44 42 41 43 46 42 48 49 47 52 51 56 58 55 46 36 30 35 34 44 43 37 32 25 23 17 14 16
27 30 40 36 32 25 21 19 21 22 21 21 22 32 44 45 45 39 37 40 48 51 54 55 57 60 59 56 52 52 52 52 61 49 36 50 45 38 30 31 24 20 15
27 22 27 34 35 29 29 27 28 30 28 24 22 27 35 38 39 50 54 49 52 55 58 65 67 65 59 59 60 64 58 63 58 63 66 61 58 37 34 34 32 27 19
45 41 36 35 40 41 38 36 37 36 38 39 35 36 39 46 43 39 44 50 62 76 71 70 73 75 75 67 67 69 73 69 62 53 61 63 57 38 36 40 39 32 26
54 45 46 48 43 42 40 40 41 43 43 40 36 40 45 49 53 46 52 55 54 63 62 60 61 75 79 80 71 67 65 76 65 52 53 63 63 44 38 47 45 41 34
Wind_Direction_850mb
219 200 167 165 212 208 196 183 173 158 143 159 199 297 298 292 314 312 320 326 329 344 357 334 298 262 249 255 269 269 269 273 282 291 298 298 301 297 292 290 288 288 289
223 222 204 207 210 218 213 207 200 195 227 268 216 260 295 270 273 288 307 316 309 319 346 15 3 316 277 268 263 260 266 285 303 313 313 315 312 308 304 304 302 303 303
220 222 221 222 221 227 212 199 199 205 273 245 231 231 285 249 269 282 292 303 282 303 341 344 28 14 329 294 256 216 35 354 339 331 328 330 328 324 325 321 318 321 320
224 229 223 224 228 228 226 243 236 258 266 223 220 230 254 265 250 279 281 286 279 303 322 325 351 2 353 342 90 96 31 6 359 349 345 343 339 337 335 333 331 332 328
244 239 247 226 210 225 241 248 248 258 269 235 239 241 254 264 270 270 279 285 286 298 312 324 333 355 22 22 73 41 16 3 3 4 358 347 341 338 333 333 336 337 333
253 252 252 252 226 222 229 237 246 253 256 245 243 242 253 257 262 293 281 273 278 297 293 323 321 348 330 5 1 342 337 352 348 0 357 352 344 335 331 335 335 336 335
251 249 254 256 240 229 229 237 242 241 244 256 245 241 247 240 251 266 280 281 277 287 279 298 303 326 336 315 322 333 319 333 333 343 348 346 341 331 333 337 338 339 337
245 248 256 257 257 234 234 237 244 241 244 246 251 250 233 247 250 255 259 266 270 281 277 274 289 289 299 319 327 330 310 317 319 332 338 338 335 330 335 338 340 343 340
251 253 249 255 260 242 235 239 243 245 246 246 254 246 234 239 261 251 250 250 253 264 277 277 280 285 276 293 302 315 319 308 309 322 328 330 329 328 334 338 341 344 342
255 254 258 259 260 253 244 241 241 247 249 251 253 244 242 261 270 273 257 243 238 246 265 269 270 279 277 278 286 286 305 323 315 313 319 323 323 324 335 339 344 346 345
262 258 256 253 255 254 251 249 243 246 253 255 252 247 248 250 259 262 270 262 251 254 261 260 268 275 275 274 278 278 292 305 318 313 316 319 315 322 334 342 348 349 351
254 267 267 254 254 258 252 252 245 245 247 254 255 251 248 251 252 259 264 273 270 273 276 271 261 265 275 273 274 280 279 289 304 305 315 316 309 320 335 344 350 354 359
269 259 266 268 263 272 266 251 248 246 245 249 257 254 250 251 255 261 267 270 272 277 280 280 282 262 256 265 266 270 270 289 288 295 312 307 301 316 333 347 357 3 9
277 266 261 262 269 270 270 270 250 250 249 250 251 253 254 250 252 255 258 264 266 268 274 278 283 274 243 250 256 265 272 287 282 298 305 294 296 314 343 358 4 11 21
291 284 273 272 269 264 264 268 271 258 254 250 251 251 253 253 255 253 253 257 266 268 263 271 268 270 259 247 251 252 268 284 286 299 296 284 299 320 357 7 7 20 25
280 284 280 278 276 270 264 260 261 262 258 250 252 258 261 260 262 262 254 258 263 265 270 268 262 252 265 268 249 250 265 265 282 293 282 277 304 324 14 18 12 20 28
326 318 294 275 275 274 259 251 253 255 257 253 254 256 258 260 264 266 260 253 261 261 261 259 261 261 265 262 239 242 249 264 275 285 268 268 293 324 8 27 20 19 21
317 316 316 301 273 263 262 261 258 257 260 254 261 268 270 269 271 266 265 257 257 259 255 250 260 266 264 246 236 244 254 265 269 270 263 259 275 305 350 14 22 27 9
329 311 314 319 301 272 262 260 253 252 253 261 267 273 276 273 271 272 266 259 254 251 252 246 254 254 249 237 233 238 251 261 266 256 249 251 254 286 317 353 10 26 24
323 325 312 309 316 306 275 254 247 250 268 265 266 272 278 272 274 273 266 250 248 244 250 248 248 247 241 238 231 239 253 265 247 254 249 243 246 262 285 320 350 11 19
303 315 319 310 301 312 315 294 265 266 272 269 261 266 264 273 276 280 263 254 245 246 246 245 243 240 232 230 234 244 259 250 237 249 250 245 251 258 270 283 317 349 4
283 300 305 312 312 296 308 313 311 296 276 278 267 264 252 259 267 277 261 252 251 248 247 248 249 246 248 250 253 252 242 228 237 245 249 246 250 256 265 266 281 309 339
296 290 300 297 304 300 303 315 315 306 303 307 300 301 282 266 263 262 261 253 249 249 249 249 250 249 250 253 256 249 233 242 248 262 261 260 248 252 256 252 256 275 300
296 299 288 290 291 288 294 300 302 298 295 294 303 303 299 290 282 269 261 257 254 249 250 254 254 253 255 255 255 243 255 253 242 250 248 263 246 247 257 244 243 261 270
292 291 283 282 283 279 282 285 291 294 293 297 293 285 281 293 293 281 282 276 266 261 259 254 252 251 252 254 254 250 247 237 228 240 252 245 236 239 255 240 239 249 255
291 292 288 280 277 276 271 277 288 290 285 286 287 293 284 274 272 297 296 289 277 271 267 264 262 254 250 255 248 241 242 243 238 235 249 221 227 230 239 245 240 241 248